Weather History for Liberal, KS

Change the Weather History Date:

Wednesday, April 30, 2014

  Actual Average Record
Temperature  
Mean Temperature 46 °F -  
Max Temperature 59 °F 75 °F 94 °F (1981)
Min Temperature 33 °F 44 °F 28 °F (1950)
Degree Days  
Heating Degree Days 19    
Moisture  
Dew Point 24 °F    
Average Humidity 45    
Maximum Humidity 70    
Minimum Humidity 22    
Precipitation  
Precipitation 0.00 in - - ()
Sea Level Pressure  
Sea Level Pressure 30.19 in    
Wind  
Wind Speed 20 mph (NNW)    
Max Wind Speed 28 mph    
Max Gust Speed 40 mph    
Visibility 10 miles    
Events      
Averages and records for this station are not official NWS values.
T = Trace of Precipitation, MM = Missing Value Source: NWS Daily Summary

Daily Weather History Graph

Daily Weather History Graph

Search for Another Location

Airport:

Trip Planner

Search our weather history database for the weather conditions in past years. The results will help you decide how hot, cold, wet, or windy it might be!

Date:

Astronomy

Apr. 30, 2014 Rise Set
Actual Time 6:50 AM CDT 8:32 PM CDT
Civil Twilight 6:22 AM CDT 9:00 PM CDT
Nautical Twilight 5:49 AM CDT 9:33 PM CDT
Astronomical Twilight 5:13 AM CDT 10:09 PM CDT
Moon 7:53 AM CDT (4/30) 10:11 PM CDT (4/30)
Length of Visible Light 14h 37m
Length of Day
13h 41m
New Moon, 2% of the Moon is Illuminated
Apr 30
New Moon
May 6
First Quarter
May 14
Full
May 21
Last Quarter
May 28
New

Hourly Weather History & Observations

Time (CDT) Temp. Windchill Dew Point Humidity Pressure Visibility Wind Dir Wind Speed Gust Speed Precip Events Conditions
12:15 AM 41.0 °F 30.9 °F 26.6 °F 57% 30.16 in 10.0 mi North 24.2 mph 32.2 mph N/A   Partly Cloudy
12:35 AM 39.2 °F 28.3 °F 26.6 °F 61% 30.16 in 10.0 mi North 25.3 mph - N/A   Clear
12:55 AM 39.2 °F 28.7 °F 26.6 °F 61% 30.17 in 10.0 mi North 23.0 mph 28.8 mph N/A   Clear
1:15 AM 39.2 °F 27.8 °F 26.6 °F 61% 30.17 in 10.0 mi North 27.6 mph 32.2 mph N/A   Clear
1:35 AM 39.2 °F 29.0 °F 26.6 °F 61% 30.18 in 10.0 mi North 21.9 mph 26.5 mph N/A   Clear
1:55 AM 37.4 °F 27.5 °F 28.4 °F 70% 30.18 in 10.0 mi NNW 18.4 mph 25.3 mph N/A   Clear
2:15 AM 37.4 °F 27.8 °F 28.4 °F 70% 30.18 in 10.0 mi NNW 17.3 mph - N/A   Clear
2:35 AM 37.4 °F 28.5 °F 28.4 °F 70% 30.18 in 10.0 mi NNW 15.0 mph - N/A   Clear
2:55 AM 37.4 °F 28.2 °F 28.4 °F 70% 30.18 in 10.0 mi NNW 16.1 mph - N/A   Clear
3:15 AM 39.2 °F 30.2 °F 28.4 °F 65% 30.18 in 10.0 mi NW 17.3 mph 24.2 mph N/A   Mostly Cloudy
3:35 AM 37.4 °F 27.2 °F 28.4 °F 70% 30.18 in 10.0 mi NNW 19.6 mph - N/A   Scattered Clouds
3:55 AM 37.4 °F 27.2 °F 26.6 °F 65% 30.19 in 10.0 mi NNW 19.6 mph 25.3 mph N/A   Clear
4:15 AM 37.4 °F 27.5 °F 26.6 °F 65% 30.18 in 10.0 mi NNW 18.4 mph - N/A   Clear
4:35 AM 37.4 °F 27.8 °F 26.6 °F 65% 30.19 in 10.0 mi NNW 17.3 mph - N/A   Clear
4:55 AM 35.6 °F 26.2 °F 26.6 °F 70% 30.20 in 10.0 mi NW 15.0 mph - N/A   Clear
5:15 AM 35.6 °F 26.6 °F 26.6 °F 70% 30.20 in 10.0 mi NW 13.8 mph - N/A   Clear
5:35 AM 35.6 °F 27.5 °F 26.6 °F 70% 30.20 in 10.0 mi WNW 11.5 mph - N/A   Clear
5:55 AM 35.6 °F 26.2 °F 24.8 °F 65% 30.20 in 10.0 mi NW 15.0 mph - N/A   Clear
6:15 AM 35.6 °F 27.1 °F 26.6 °F 70% 30.20 in 10.0 mi NW 12.7 mph - N/A   Clear
6:35 AM 35.6 °F 26.2 °F 26.6 °F 70% 30.21 in 10.0 mi NW 15.0 mph - N/A   Clear
6:55 AM 35.6 °F 26.6 °F 24.8 °F 65% 30.21 in 10.0 mi NNW 13.8 mph - N/A   Clear
7:15 AM 33.8 °F 25.8 °F 24.8 °F 70% 30.22 in 10.0 mi NW 10.4 mph - N/A   Clear
7:35 AM 35.6 °F 28.0 °F 26.6 °F 70% 30.23 in 10.0 mi NW 10.4 mph - N/A   Clear
7:55 AM 37.4 °F 29.3 °F 26.6 °F 65% 30.23 in 10.0 mi NW 12.7 mph - N/A   Clear
8:15 AM 39.2 °F 29.8 °F 28.4 °F 65% 30.24 in 10.0 mi NNW 18.4 mph 23.0 mph N/A   Clear
8:35 AM 42.8 °F 32.7 °F 30.2 °F 61% 30.23 in 10.0 mi NNW 27.6 mph 31.1 mph N/A   Clear
8:55 AM 42.8 °F 33.1 °F 30.2 °F 61% 30.24 in 10.0 mi NNW 25.3 mph 29.9 mph N/A   Clear
9:15 AM 44.6 °F 35.1 °F 28.4 °F 53% 30.24 in 10.0 mi NNW 27.6 mph 31.1 mph N/A   Clear
9:35 AM 44.6 °F 35.7 °F 28.4 °F 53% 30.24 in 10.0 mi NNW 24.2 mph 34.5 mph N/A   Mostly Cloudy
10:15 AM 48.2 °F - 26.6 °F 43% 30.25 in 10.0 mi North 26.5 mph - N/A   Mostly Cloudy
10:35 AM 46.4 °F 37.9 °F 24.8 °F 43% 30.25 in 10.0 mi North 25.3 mph 35.7 mph N/A   Mostly Cloudy
10:55 AM 46.4 °F 38.1 °F 24.8 °F 43% 30.25 in 10.0 mi NNW 24.2 mph 34.5 mph N/A   Overcast
11:15 AM 46.4 °F 38.5 °F 24.8 °F 43% 30.24 in 10.0 mi NNW 21.9 mph 31.1 mph N/A   Mostly Cloudy
11:35 AM 48.2 °F - 26.6 °F 43% 30.24 in 10.0 mi North 27.6 mph 35.7 mph N/A   Scattered Clouds
11:55 AM 51.8 °F - 26.6 °F 38% 30.24 in 10.0 mi NNW 24.2 mph 34.5 mph N/A   Mostly Cloudy
12:15 PM 51.8 °F - 26.6 °F 38% 30.23 in 10.0 mi NW 27.6 mph 32.2 mph N/A   Scattered Clouds
12:35 PM 51.8 °F - 24.8 °F 35% 30.23 in 10.0 mi NW 21.9 mph 29.9 mph N/A   Mostly Cloudy
12:55 PM 51.8 °F - 26.6 °F 38% 30.22 in 10.0 mi NNW 23.0 mph 28.8 mph N/A   Scattered Clouds
1:15 PM 53.6 °F - 24.8 °F 33% 30.20 in 10.0 mi NNW 23.0 mph 31.1 mph N/A   Partly Cloudy
1:35 PM 53.6 °F - 24.8 °F 33% 30.20 in 10.0 mi NW 24.2 mph 39.1 mph N/A   Partly Cloudy
1:55 PM 55.4 °F - 23.0 °F 29% 30.20 in 10.0 mi NNW 21.9 mph 34.5 mph N/A   Scattered Clouds
2:15 PM 55.4 °F - 21.2 °F 26% 30.20 in 10.0 mi NW 20.7 mph 29.9 mph N/A   Partly Cloudy
2:35 PM 55.4 °F - 21.2 °F 26% 30.19 in 10.0 mi NW 20.7 mph 33.4 mph N/A   Partly Cloudy
2:55 PM 55.4 °F - 21.2 °F 26% 30.19 in 10.0 mi NNW 17.3 mph 32.2 mph N/A   Scattered Clouds
3:15 PM 57.2 °F - 21.2 °F 25% 30.18 in 10.0 mi NNW 17.3 mph 35.7 mph N/A   Scattered Clouds
3:35 PM 57.2 °F - 21.2 °F 25% 30.18 in 10.0 mi NW 16.1 mph 34.5 mph N/A   Scattered Clouds
4:15 PM 57.2 °F - 21.2 °F 25% 30.16 in 10.0 mi North 24.2 mph 33.4 mph N/A   Partly Cloudy
4:35 PM 57.2 °F - 21.2 °F 25% 30.16 in 10.0 mi NNW 24.2 mph 28.8 mph N/A   Clear
4:55 PM 59.0 °F - 21.2 °F 23% 30.15 in 10.0 mi North 19.6 mph 32.2 mph N/A   Clear
5:15 PM 59.0 °F - 21.2 °F 23% 30.14 in 10.0 mi North 20.7 mph 31.1 mph N/A   Clear
5:35 PM 59.0 °F - 21.2 °F 23% 30.14 in 10.0 mi North 21.9 mph 32.2 mph N/A   Clear
5:55 PM 59.0 °F - 21.2 °F 23% 30.14 in 10.0 mi North 24.2 mph 33.4 mph N/A   Partly Cloudy
6:15 PM 59.0 °F - 21.2 °F 23% 30.14 in 10.0 mi NNW 26.5 mph 40.3 mph N/A   Clear
6:35 PM 59.0 °F - 19.4 °F 22% 30.14 in 10.0 mi North 21.9 mph 33.4 mph N/A   Clear
6:55 PM 57.2 °F - 19.4 °F 23% 30.14 in 10.0 mi NNW 20.7 mph - N/A   Clear
7:15 PM 57.2 °F - 19.4 °F 23% 30.14 in 10.0 mi North 19.6 mph 23.0 mph N/A   Clear
7:35 PM 55.4 °F - 17.6 °F 23% 30.13 in 10.0 mi North 19.6 mph - N/A   Clear
7:55 PM 55.4 °F - 19.4 °F 25% 30.14 in 10.0 mi North 16.1 mph - N/A   Clear
8:15 PM 53.6 °F - 19.4 °F 26% 30.14 in 10.0 mi North 17.3 mph - N/A   Clear
8:35 PM 53.6 °F - 17.6 °F 24% 30.14 in 10.0 mi North 11.5 mph - N/A   Clear
8:55 PM 50.0 °F - 17.6 °F 28% 30.15 in 10.0 mi North 10.4 mph - N/A   Clear
9:15 PM 46.4 °F 42.9 °F 17.6 °F 32% 30.16 in 10.0 mi North 6.9 mph - N/A   Clear
9:35 PM 44.6 °F 40.7 °F 15.8 °F 31% 30.16 in 10.0 mi NNW 6.9 mph - N/A   Clear
9:55 PM 42.8 °F 38.0 °F 15.8 °F 34% 30.17 in 10.0 mi NNW 8.1 mph - N/A   Clear
10:15 PM 41.0 °F 35.8 °F 17.6 °F 39% 30.18 in 10.0 mi WNW 8.1 mph - N/A   Clear
10:35 PM 42.8 °F 37.5 °F 19.4 °F 39% 30.18 in 10.0 mi WNW 9.2 mph - N/A   Clear
10:55 PM 39.2 °F 33.6 °F 19.4 °F 45% 30.19 in 10.0 mi WNW 8.1 mph - N/A   Clear
11:15 PM 42.8 °F 37.0 °F 21.2 °F 42% 30.19 in 10.0 mi NW 10.4 mph - N/A   Clear
11:35 PM 44.6 °F 38.4 °F 21.2 °F 39% 30.20 in 10.0 mi NNW 12.7 mph - N/A   Clear
11:55 PM 42.8 °F 37.5 °F 21.2 °F 42% 30.21 in 10.0 mi NW 9.2 mph - N/A   Clear